Ardabil, Iran

10:35 PM +0330 on October 14, 2019 (GMT +0330)
Ardabil

Weather History for OITL - August, 2019

Change the Weather History Date:

Thursday, August 15, 2019

  Actual Average Record
Temperature  
Mean Temperature 66 °F -  
Max Temperature 78 °F - - ()
Min Temperature 55 °F - - ()
Cooling Degree Days 2    
Growing Degree Days 16 (Base 50)    
Moisture  
Dew Point 58 °F    
Average Humidity 73    
Maximum Humidity 100    
Minimum Humidity 39    
Precipitation  
Precipitation 0.00 in - - ()
Sea Level Pressure  
Sea Level Pressure 30.05 in    
Wind  
Wind Speed 10 mph ()    
Max Wind Speed 26 mph    
Max Gust Speed -    
Visibility 4.6 miles    
Events Fog    
T = Trace of Precipitation, MM = Missing Value Source: Averaged Metar Reports

Daily Weather History Graph

Daily Weather History Graph

Search for Another Location

Airport or City:

Astronomy

Aug. 15, 2019 Rise Set
Actual Time 6:30 AM +0430 8:10 PM +0430
Civil Twilight 6:02 AM +0430 8:38 PM +0430
Nautical Twilight 5:27 AM +0430 9:12 PM +0430
Astronomical Twilight 4:51 AM +0430 9:49 PM +0430
Moon 8:26 PM +0430 (8/15) 6:03 AM +0430 (8/15)
Length of Visible Light 14h 36m
Length of Day
13h 40m
Full, 100% of the Moon is Illuminated
Aug 15
Full
Aug 15
Full
Aug 23
Last Quarter
Aug 30
New
Sep 6
First Quarter

Hourly Weather History & Observations

Time (+0430) Temp. Dew Point Humidity Pressure Visibility Wind Dir Wind Speed Gust Speed Precip Events Conditions
12:22 AM 55.4 °F 53.6 °F 94% 30.12 in 6.2 mi East 4.6 mph - N/A Fog Mostly Cloudy
1:23 AM 55.4 °F 53.6 °F 94% 30.09 in 1.2 mi East 4.6 mph - N/A   Overcast
2:23 AM 55.4 °F 55.4 °F 100% 30.09 in 0.6 mi North 4.6 mph - N/A Fog Fog
3:25 AM 55.4 °F 55.4 °F 100% 30.09 in 0.1 mi WNW 4.6 mph - N/A Fog Fog
4:21 AM 55.4 °F 55.4 °F 100% 30.09 in 0.1 mi SE 4.6 mph - N/A Fog Fog
5:20 AM 55.4 °F 55.4 °F 100% 30.09 in 0.1 mi Calm Calm - N/A Fog Fog
6:21 AM 55.4 °F 55.4 °F 100% 30.09 in 0.1 mi Calm Calm - N/A Fog Fog
7:23 AM 55.4 °F 53.6 °F 94% 30.09 in 0.1 mi Calm Calm - N/A Fog Light Drizzle
7:30 AM 55.4 °F 53.6 °F 94% 30.09 in 0.1 mi Calm Calm - N/A Fog Light Drizzle
8:20 AM 55.4 °F 53.6 °F 94% 30.12 in 0.1 mi Variable 2.3 mph - N/A Fog Light Drizzle
8:30 AM 55.4 °F 53.6 °F 94% 30.12 in 0.1 mi Variable 2.3 mph - N/A Fog Light Drizzle
9:20 AM 62.6 °F 55.4 °F 77% 30.09 in 4.3 mi Variable 2.3 mph - N/A Fog Fog
9:30 AM 62.6 °F 55.4 °F 77% 30.09 in 4.3 mi Variable 2.3 mph - N/A Fog Fog
10:21 AM 71.6 °F 57.2 °F 60% 30.09 in - North 6.9 mph - N/A   Clear
10:30 AM 71.6 °F 57.2 °F 60% 30.09 in - North 6.9 mph - N/A   Clear
11:00 AM 75.2 °F 55.4 °F 50% 30.09 in - NE 6.9 mph - N/A   Clear
11:20 AM 75.2 °F 53.6 °F 47% 30.09 in 6.2 mi NE 6.9 mph - N/A   Partly Cloudy
11:30 AM 75.2 °F 53.6 °F 47% 30.09 in 6.2 mi NE 6.9 mph - N/A   Partly Cloudy
12:21 PM 78.8 °F 51.8 °F 39% 30.06 in 6.2 mi ENE 11.5 mph - N/A   Partly Cloudy
1:00 PM 77.0 °F 55.4 °F 47% 30.06 in 6.2 mi ENE 13.8 mph - N/A   Partly Cloudy
1:20 PM 78.8 °F 57.2 °F 47% 30.04 in 6.2 mi East 18.4 mph - N/A   Partly Cloudy
1:30 PM 78.8 °F 57.2 °F 47% 30.04 in 6.2 mi East 18.4 mph - N/A   Partly Cloudy
2:00 PM 78.8 °F 57.2 °F 47% 30.04 in 6.2 mi ENE 18.4 mph - N/A   Partly Cloudy
2:24 PM 77.0 °F 59.0 °F 54% 30.04 in 6.2 mi ENE 18.4 mph - N/A   Partly Cloudy
2:30 PM 77.0 °F 59.0 °F 54% 30.04 in 6.2 mi ENE 18.4 mph - N/A   Partly Cloudy
3:00 PM 78.8 °F 59.0 °F 51% 30.01 in 6.2 mi ENE 24.2 mph - N/A   Partly Cloudy
3:21 PM 78.8 °F 59.0 °F 51% 30.01 in 6.2 mi ENE 24.2 mph - N/A   Partly Cloudy
3:30 PM 78.8 °F 59.0 °F 51% 30.01 in 6.2 mi ENE 24.2 mph - N/A   Partly Cloudy
4:00 PM 77.0 °F 59.0 °F 54% 30.01 in 6.2 mi ENE 24.2 mph - N/A   Partly Cloudy
4:21 PM 77.0 °F 59.0 °F 54% 30.01 in 6.2 mi ENE 21.9 mph - N/A   Partly Cloudy
4:30 PM 77.0 °F 59.0 °F 54% 30.01 in 6.2 mi ENE 21.9 mph - N/A   Partly Cloudy
5:00 PM 77.0 °F 59.0 °F 54% 30.01 in 6.2 mi ENE 21.9 mph - N/A   Partly Cloudy
5:22 PM 75.2 °F 60.8 °F 61% 29.98 in 6.2 mi ENE 24.2 mph - N/A   Partly Cloudy
5:30 PM 75.2 °F 60.8 °F 61% 29.98 in 6.2 mi ENE 24.2 mph - N/A   Partly Cloudy
6:00 PM 73.4 °F 59.0 °F 61% 29.98 in 6.2 mi ENE 24.2 mph - N/A   Partly Cloudy
6:20 PM 69.8 °F 60.8 °F 73% 29.98 in 6.2 mi ENE 21.9 mph - N/A   Partly Cloudy
6:30 PM 69.8 °F 60.8 °F 73% 29.98 in 6.2 mi ENE 21.9 mph - N/A   Partly Cloudy
7:00 PM 69.8 °F 59.0 °F 68% 29.98 in 6.2 mi ENE 21.9 mph - N/A   Partly Cloudy
7:20 PM 66.2 °F 60.8 °F 83% 29.98 in 6.2 mi ENE 26.5 mph - N/A   Partly Cloudy
7:30 PM 66.2 °F 60.8 °F 83% 29.98 in 6.2 mi ENE 26.5 mph - N/A   Partly Cloudy
8:00 PM 64.4 °F 59.0 °F 83% 30.01 in 6.2 mi ENE 26.5 mph - N/A   Partly Cloudy
8:20 PM 64.4 °F 59.0 °F 83% 30.01 in 5.0 mi ENE 18.4 mph - N/A Fog Fog
8:30 PM 62.6 °F 60.8 °F 94% 30.01 in 5.0 mi ENE 18.4 mph - N/A Fog Fog
9:00 PM 62.6 °F 60.8 °F 94% 30.01 in 5.0 mi ENE 18.4 mph - N/A Fog Fog
9:21 PM 62.6 °F 60.8 °F 94% 30.06 in 4.3 mi ENE 11.5 mph - N/A   Mostly Cloudy
9:30 PM 62.6 °F 60.8 °F 94% 30.06 in 4.3 mi ENE 11.5 mph - N/A   Mostly Cloudy
10:20 PM 62.6 °F 60.8 °F 94% 30.06 in 5.0 mi ENE 9.2 mph - N/A   Mostly Cloudy
11:20 PM 60.8 °F 60.8 °F 100% 30.06 in 5.0 mi East 9.2 mph - N/A Fog Fog